DW1253 Weather Reports


time (UTC)temp
F
wind
direction
speed
knots
gust
knots
rain 1hr
in
rain 24hr
in
rain mn
in
humidity
%
barometer
mb
20260905144337 69 88 3.5 10.4 0.00 0.00 0.00 74 1014.5
20260905143835 69 95 7.0 10.4 0.00 0.00 0.00 75 1014.4
20260905143351 69 107 3.5 8.7 0.00 0.00 0.00 74 1014.3
20260905142848 69 32 5.2 8.7 0.00 0.00 0.00 74 1014.4
20260905142344 68 74 3.5 8.7 0.00 0.00 0.00 77 1014.3
20260905141859 68 31 3.5 8.7 0.00 0.00 0.00 76 1014.5
20260905141340 68 22 4.3 7.8 0.00 0.00 0.00 78 1014.5
20260905140837 68 80 2.6 7.8 0.00 0.00 0.00 76 1014.5
20260905140333 68 28 2.6 7.0 0.00 0.00 0.00 80 1014.4
20260905135841 68 73 3.5 7.8 0.00 0.00 0.00 79 1014.5
20260905135338 68 44 2.6 8.7 0.00 0.00 0.00 80 1014.5
20260905134854 67 130 3.5 8.7 0.00 0.00 0.00 81 1014.5
20260905134349 67 73 3.5 7.8 0.00 0.00 0.00 81 1014.6
20260905133846 67 103 4.3 7.8 0.00 0.00 0.00 83 1014.6
20260905133341 67 355 2.6 6.1 0.00 0.00 0.00 85 1014.6
20260905132838 67 113 2.6 5.2 0.00 0.00 0.00 85 1014.6
20260905132335 66 47 1.7 4.3 0.00 0.00 0.00 86 1014.5
20260905131851 66 82 2.6 5.2 0.00 0.00 0.00 88 1014.5
20260905131348 65 141 1.7 5.2 0.00 0.00 0.00 86 1014.5
20260905130842 65 42 2.6 8.7 0.00 0.00 0.00 87 1014.4
20260905130338 65 31 3.5 8.7 0.00 0.00 0.00 87 1014.5
20260905125846 65 46 2.6 7.8 0.00 0.00 0.00 86 1014.4
20260905125343 65 20 3.5 7.0 0.00 0.00 0.00 87 1014.3
20260905124839 65 32 0.9 5.2 0.00 0.00 0.00 88 1014.4
20260905124356 65 61 0.9 7.0 0.00 0.00 0.00 88 1014.4
20260905123836 64 24 4.3 7.0 0.00 0.00 0.00 88 1014.5
20260905123352 64 28 3.5 6.1 0.00 0.00 0.00 88 1014.5
20260905122848 64 60 2.6 5.2 0.00 0.00 0.00 88 1014.5
20260905122344 64 76 2.6 5.2 0.00 0.00 0.00 88 1014.5
20260905121841 64 63 2.6 4.3 0.00 0.00 0.00 88 1014.5
20260905121336 64 42 2.6 5.2 0.00 0.00 0.00 89 1014.5
20260905120834 64 44 1.7 5.2 0.00 0.00 0.00 91 1014.5
20260905120329 63 57 0.9 3.5 0.00 0.00 0.00 92 1014.5
20260905115857 64 41 0.9 2.6 0.00 0.00 0.00 94 1014.6
20260905115333 63 44 0.0 2.6 0.00 0.00 0.00 94 1014.5
20260905114848 63 29 1.7 2.6 0.00 0.00 0.00 95 1014.5
20260905114345 63 29 0.9 1.7 0.00 0.00 0.00 95 1014.5
20260905113840 62 29 0.9 1.7 0.00 0.00 0.00 95 1014.5
20260905113357 62 29 0.9 2.6 0.00 0.00 0.00 94 1014.5
20260905112833 62 29 0.9 1.7 0.00 0.00 0.00 94 1014.5
20260905112348 62 29 0.0 1.7 0.00 0.00 0.00 94 1014.4
20260905111845 61 29 0.0 0.9 0.00 0.00 0.00 94 1014.2
20260905111342 61 29 0.0 1.7 0.00 0.00 0.00 94 1014.2
20260905110840 61 29 0.9 1.7 0.00 0.00 0.00 94 1014.1
20260905110356 61 29 0.0 1.7 0.00 0.00 0.00 94 1013.9
20260905105844 61 29 0.9 1.7 0.00 0.00 0.00 94 1013.9
20260905105400 61 29 0.0 2.6 0.00 0.00 0.00 94 1013.8
20260905104835 61 29 0.0 2.6 0.00 0.00 0.00 94 1013.5
20260905104334 61 33 0.9 2.6 0.00 0.00 0.00 94 1013.5
20260905103849 61 34 0.9 2.6 0.00 0.00 0.00 94 1013.4
20260905103346 61 338 0.9 3.5 0.00 0.00 0.00 93 1013.5
20260905102842 61 355 1.7 3.5 0.00 0.00 0.00 93 1013.4
20260905102338 61 334 0.0 3.5 0.00 0.00 0.00 93 1013.5
20260905101836 61 328 0.9 3.5 0.00 0.00 0.00 93 1013.4
20260905101351 61 22 0.9 1.7 0.00 0.00 0.00 93 1013.5
20260905100848 61 22 0.0 1.7 0.00 0.00 0.00 93 1013.7
20260905100344 61 22 0.0 1.7 0.00 0.00 0.00 93 1013.5
20260905095833 61 22 0.9 2.6 0.00 0.00 0.00 93 1013.4
20260905095348 61 27 0.0 2.6 0.00 0.00 0.00 93 1013.3
20260905094846 61 27 0.9 2.6 0.00 0.00 0.00 93 1013.5
20260905094342 61 26 1.7 2.6 0.00 0.00 0.00 93 1013.4
20260905093839 61 350 0.9 1.7 0.00 0.00 0.00 93 1013.4
20260905093335 61 350 0.9 1.7 0.00 0.00 0.00 92 1013.4
20260905092852 62 350 0.0 1.7 0.00 0.00 0.00 92 1013.4
20260905092332 62 350 0.0 2.6 0.00 0.00 0.00 92 1013.3
20260905091849 62 350 0.9 2.6 0.00 0.00 0.00 92 1013.5
20260905091347 62 350 0.9 2.6 0.00 0.00 0.00 92 1013.4
20260905090842 62 350 0.9 2.6 0.00 0.00 0.00 92 1013.4
20260905090338 62 350 0.0 1.7 0.00 0.00 0.00 92 1013.3
20260905085846 62 350 0.0 1.7 0.00 0.00 0.00 92 1013.3
20260905085343 62 350 0.0 2.6 0.00 0.00 0.00 92 1013.2
20260905084841 62 350 0.9 2.6 0.00 0.00 0.00 92 1013.1
20260905084337 62 349 0.9 1.7 0.00 0.00 0.00 91 1013.0
20260905083852 62 349 0.0 0.9 0.00 0.00 0.00 91 1012.9
20260905083349 62 349 0.0 0.9 0.00 0.00 0.00 91 1013.0
20260905082844 62 349 0.0 1.7 0.00 0.00 0.00 91 1013.0
20260905082341 62 349 0.0 2.6 0.00 0.00 0.00 91 1013.1
20260905081837 62 349 0.9 2.6 0.00 0.00 0.00 91 1013.0
20260905081333 62 349 0.9 2.6 0.00 0.00 0.00 91 1013.2
20260905080849 62 349 0.9 2.6 0.00 0.00 0.00 91 1013.2
20260905080345 63 349 0.9 3.5 0.00 0.00 0.00 91 1013.2
20260905075834 63 11 1.7 4.3 0.00 0.00 0.00 91 1013.1
20260905075411 63 28 0.9 3.5 0.00 0.00 0.00 91 1013.1
20260905074906 63 17 0.9 3.5 0.00 0.00 0.00 91 1013.2
20260905074341 63 26 1.7 4.3 0.00 0.00 0.00 90 1013.2
20260905073857 63 30 1.7 3.5 0.00 0.00 0.00 90 1013.3
20260905073335 63 16 1.7 4.3 0.00 0.00 0.00 90 1013.4
20260905072850 63 57 1.7 4.3 0.00 0.00 0.00 90 1013.4
20260905072347 63 360 0.9 4.3 0.00 0.00 0.00 90 1013.4
20260905071903 63 36 1.7 4.3 0.00 0.00 0.00 89 1013.6
20260905071339 63 11 0.9 2.6 0.00 0.00 0.00 89 1013.7
20260905070835 63 15 0.9 2.6 0.00 0.00 0.00 89 1013.6
20260905070331 63 26 0.9 2.6 0.00 0.00 0.00 89 1013.6
20260905065838 63 26 0.9 2.6 0.00 0.00 0.00 89 1013.6
20260905065335 63 26 0.9 2.6 0.00 0.00 0.00 89 1013.7
20260905064851 63 9 0.0 2.6 0.00 0.00 0.00 89 1013.6
20260905064408 63 355 0.9 2.6 0.00 0.00 0.00 88 1013.7
20260905063841 64 355 0.9 2.6 0.00 0.00 0.00 88 1013.7
20260905063338 64 355 0.9 2.6 0.00 0.00 0.00 88 1013.8
20260905062834 64 355 0.9 2.6 0.00 0.00 0.00 88 1013.9
20260905062410 64 355 0.9 2.6 0.00 0.00 0.00 88 1013.9
20260905061846 64 5 0.9 2.6 0.00 0.00 0.00 88 1014.0
20260905061342 64 355 0.9 2.6 0.00 0.00 0.00 88 1013.8
20260905060839 64 5 0.9 3.5 0.00 0.00 0.00 88 1014.0
20260905060354 64 360 0.9 3.5 0.00 0.00 0.00 89 1014.1
20260905055843 63 14 1.7 4.3 0.00 0.00 0.00 89 1014.0
20260905055338 63 355 1.7 5.2 0.00 0.00 0.00 89 1014.1
20260905054835 63 322 0.9 5.2 0.00 0.00 0.00 89 1014.1
20260905054335 63 15 1.7 3.5 0.00 0.00 0.00 89 1014.1
20260905053852 63 27 1.7 3.5 0.00 0.00 0.00 89 1014.1
20260905053348 63 349 0.9 4.3 0.00 0.00 0.00 89 1014.2
20260905052844 63 47 0.9 4.3 0.00 0.00 0.00 89 1014.2
20260905052340 63 338 0.9 3.5 0.00 0.00 0.00 89 1014.1
20260905051837 63 336 0.0 3.5 0.00 0.00 0.00 89 1014.0
20260905051333 63 314 0.9 3.5 0.00 0.00 0.00 90 1014.0
20260905050850 63 325 0.9 4.3 0.00 0.00 0.00 90 1014.0
20260905050346 64 298 1.7 4.3 0.00 0.00 0.00 90 1014.1
20260905045854 64 316 0.9 3.5 0.00 0.00 0.00 91 1014.1
20260905045350 64 313 0.9 2.6 0.00 0.00 0.00 91 1014.1
20260905044907 64 321 0.0 2.6 0.00 0.00 0.00 91 1014.1
20260905044402 64 321 0.9 2.6 0.00 0.00 0.00 91 1014.1
20260905043838 64 304 0.9 2.6 0.00 0.00 0.00 92 1014.2
20260905043354 64 325 1.7 2.6 0.00 0.00 0.00 92 1014.2
20260905042850 65 304 0.9 2.6 0.00 0.00 0.00 92 1014.2
20260905042345 65 279 0.9 2.6 0.00 0.00 0.00 92 1014.3
20260905041842 65 279 0.9 3.5 0.00 0.00 0.00 93 1014.3
20260905041338 65 18 0.9 2.6 0.00 0.00 0.00 93 1014.4
20260905040834 66 22 0.9 2.6 0.00 0.00 0.00 93 1014.2
20260905040330 66 22 0.9 1.7 0.00 0.00 0.00 93 1014.3
20260905035838 66 22 0.9 1.7 0.00 0.00 0.00 93 1014.3
20260905035339 66 22 0.0 0.9 0.00 0.00 0.00 93 1014.3
20260905034855 66 22 0.0 0.9 0.00 0.00 0.00 93 1014.3
20260905034350 66 22 0.0 0.9 0.00 0.00 0.00 93 1014.2
20260905033846 66 22 0.0 0.0 0.00 0.00 0.00 93 1014.2
20260905033344 66 22 0.0 0.0 0.00 0.00 0.00 93 1014.3
20260905032838 66 22 0.0 0.0 0.00 0.00 0.00 93 1014.4
20260905032335 66 22 0.0 0.0 0.00 0.00 0.00 93 1014.3
20260905031913 66 22 0.0 0.0 0.00 0.00 0.00 93 1014.3
20260905031347 66 22 0.0 0.0 0.00 0.00 0.00 93 1014.2
20260905030904 66 22 0.0 0.0 0.00 0.00 0.00 93 1014.2
20260905030339 66 22 0.0 0.9 0.00 0.00 0.00 92 1014.1
20260905025848 66 22 0.0 0.9 0.00 0.00 0.00 92 1014.2
20260905025343 66 22 0.0 0.9 0.00 0.00 0.00 92 1014.1
20260905024839 66 22 0.0 0.9 0.00 0.00 0.00 92 1014.2
20260905024335 66 22 0.0 0.9 0.00 0.00 0.00 92 1014.2
20260905023912 66 22 0.0 0.9 0.00 0.00 0.00 92 1014.2
20260905023349 66 22 0.0 0.9 0.00 0.00 0.00 92 1014.2
20260905022846 66 22 0.0 0.0 0.00 0.00 0.00 91 1014.3
20260905022342 66 22 0.0 0.9 0.00 0.00 0.00 91 1014.3
20260905021858 66 22 0.0 0.9 0.00 0.00 0.00 91 1014.3
20260905021332 66 22 0.0 0.0 0.00 0.00 0.00 91 1014.3
20260905020910 66 22 0.0 0.0 0.00 0.00 0.00 91 1014.3
20260905020344 67 22 0.0 0.0 0.00 0.00 0.00 91 1014.2
20260905015912 67 22 0.0 0.0 0.00 0.00 0.00 91 1014.3
20260905015408 67 22 0.0 0.0 0.00 0.00 0.00 91 1014.3
20260905014843 67 22 0.0 0.0 0.00 0.00 0.00 91 1014.3
20260905014340 67 22 0.0 0.0 0.00 0.00 0.00 90 1014.3
20260905013837 67 22 0.0 0.9 0.00 0.00 0.00 90 1014.3
20260905013337 67 22 0.0 0.9 0.00 0.00 0.00 90 1014.4
20260905012853 67 22 0.0 0.0 0.00 0.00 0.00 90 1014.3
20260905012348 67 22 0.0 0.0 0.00 0.00 0.00 90 1014.4
20260905011842 67 22 0.0 0.0 0.00 0.00 0.00 90 1014.3
20260905011339 67 22 0.0 0.0 0.00 0.00 0.00 89 1014.3
20260905010837 67 22 0.0 0.0 0.00 0.00 0.00 89 1014.2
20260905010331 67 22 0.0 0.0 0.00 0.00 0.00 89 1014.2
20260905005840 67 22 0.0 0.0 0.00 0.00 0.00 89 1014.2
20260905005336 67 22 0.0 0.0 0.00 0.00 0.00 89 1014.2
20260905004851 67 22 0.0 0.0 0.00 0.00 0.00 89 1014.2
20260905004406 68 22 0.0 0.0 0.00 0.00 0.00 89 1014.3
20260905003841 68 22 0.0 0.0 0.00 0.00 0.00 88 1014.4
20260905003336 68 22 0.0 0.0 0.00 0.00 0.00 88 1014.5
20260905002839 68 22 0.0 0.0 0.00 0.00 0.00 88 1014.4
20260905002335 68 22 0.0 0.0 0.00 0.00 0.00 88 1014.5
20260905001912 68 22 0.0 0.0 0.00 0.00 0.00 88 1014.5
20260905001345 68 22 0.0 0.0 0.00 0.00 0.00 87 1014.4
20260905000842 68 22 0.0 0.0 0.00 0.00 0.00 87 1014.2
20260905000357 68 22 0.0 0.0 0.00 0.00 0.00 86 1014.2
20260904235905 69 22 0.0 0.0 0.00 0.01 0.00 86 1014.1
20260904235339 69 22 0.0 0.0 0.00 0.01 0.00 86 1014.3
20260904234836 69 22 0.0 0.0 0.00 0.01 0.00 85 1014.4
20260904234337 69 22 0.0 0.0 0.00 0.01 0.00 85 1014.3
20260904233834 69 22 0.0 0.0 0.00 0.01 0.00 85 1014.4
20260904233350 69 22 0.0 0.0 0.00 0.01 0.00 85 1014.3
20260904232847 69 22 0.0 0.0 0.00 0.01 0.00 84 1014.2
20260904232343 70 22 0.0 0.0 0.00 0.01 0.00 84 1014.1
20260904231839 70 22 0.0 0.0 0.00 0.01 0.00 84 1014.1
20260904231335 70 22 0.0 0.0 0.00 0.01 0.00 83 1013.9
20260904230852 70 22 0.0 0.0 0.00 0.01 0.00 83 1013.9
20260904230346 70 22 0.0 0.0 0.00 0.01 0.00 82 1013.9
20260904225837 70 22 0.0 0.0 0.00 0.01 0.00 81 1013.9
20260904225353 71 22 0.0 0.0 0.00 0.01 0.00 81 1013.8
20260904224910 71 22 0.0 0.9 0.00 0.01 0.00 81 1013.9
20260904224344 71 22 0.0 0.9 0.00 0.01 0.00 80 1013.8
20260904223842 71 22 0.0 0.0 0.00 0.01 0.00 79 1013.8
20260904223336 71 22 0.0 1.7 0.00 0.01 0.00 79 1013.7
20260904222851 71 22 0.0 1.7 0.00 0.01 0.00 78 1013.6
20260904222345 71 22 0.0 3.5 0.00 0.01 0.00 78 1013.6
20260904221840 71 22 0.9 3.5 0.00 0.01 0.00 77 1013.5
20260904221333 71 26 0.9 2.6 0.00 0.01 0.00 78 1013.3
20260904220833 71 14 0.9 1.7 0.00 0.01 0.00 78 1013.1
20260904220348 71 14 0.0 0.0 0.00 0.01 0.00 79 1013.1
20260904215835 71 14 0.0 0.0 0.00 0.01 0.00 80 1013.1
20260904215351 71 14 0.0 0.0 0.00 0.01 0.00 79 1013.1
20260904214846 71 14 0.0 0.9 0.00 0.01 0.00 79 1013.0
20260904214339 71 14 0.0 1.7 0.00 0.01 0.00 80 1013.1
20260904213913 71 14 0.0 1.7 0.00 0.01 0.00 80 1013.0
20260904213347 71 14 0.0 0.9 0.00 0.01 0.00 78 1012.9
20260904212842 71 14 0.0 1.7 0.00 0.01 0.00 78 1013.0
20260904212337 71 14 0.0 2.6 0.00 0.01 0.00 78 1013.2
20260904211852 71 14 0.0 2.6 0.00 0.01 0.00 77 1013.2
20260904211346 71 123 0.0 1.7 0.00 0.01 0.00 78 1013.3
20260904210840 71 130 0.0 1.7 0.00 0.01 0.00 78 1013.3
20260904210335 70 130 0.0 1.7 0.00 0.01 0.00 81 1013.2
20260904205841 70 130 0.0 1.7 0.00 0.01 0.00 81 1013.6
20260904205335 70 130 0.0 0.0 0.00 0.01 0.00 79 1013.7
20260904204911 70 130 0.0 0.9 0.00 0.01 0.00 80 1013.7
20260904204345 70 130 0.0 0.9 0.00 0.01 0.00 81 1013.7
20260904203839 70 130 0.0 0.9 0.00 0.01 0.00 79 1013.7
20260904203334 70 130 0.0 1.7 0.00 0.01 0.00 78 1013.8
20260904202847 71 130 0.0 1.7 0.00 0.01 0.00 77 1013.8
20260904202342 71 90 0.0 2.6 0.00 0.01 0.00 77 1013.8
20260904201840 71 92 0.0 2.6 0.00 0.01 0.00 80 1013.9
20260904201356 72 306 0.9 4.3 0.00 0.01 0.00 79 1013.9
20260904200906 72 304 1.7 4.3 0.00 0.01 0.00 78 1013.8
20260904200344 72 5 1.7 2.6 0.00 0.01 0.00 80 1013.9
20260904195849 72 84 0.0 5.2 0.00 0.01 0.00 79 1014.1
20260904192337 71 278 0.9 3.5 0.00 0.01 0.00 82 1014.4
20260904191859 71 246 0.9 3.5 0.00 0.01 0.00 83 1014.6
20260904191341 71 229 0.9 2.6 0.00 0.01 0.00 82 1014.6
20260904190842 71 251 0.9 2.6 0.00 0.01 0.00 83 1014.8
20260904190330 71 351 0.0 2.6 0.00 0.01 0.00 84 1014.7
20260904185836 71 21 0.9 2.6 0.00 0.01 0.00 83 1014.9
20260904185331 72 124 1.7 3.5 0.00 0.01 0.00 82 1014.9
20260904184838 72 93 1.7 3.5 0.00 0.01 0.00 81 1015.0
20260904184342 72 115 1.7 3.5 0.00 0.01 0.00 80 1015.0
20260904183850 73 146 1.7 3.5 0.00 0.01 0.00 81 1014.9
20260904183351 72 115 1.7 3.5 0.00 0.01 0.00 82 1014.9
20260904182838 72 217 0.9 7.0 0.00 0.01 0.00 80 1014.9
20260904182333 73 215 2.6 7.0 0.00 0.01 0.00 79 1014.9
20260904181832 73 244 0.9 6.1 0.00 0.01 0.00 79 1014.8
20260904181338 73 119 0.9 4.3 0.00 0.01 0.00 80 1015.0
20260904180834 72 215 1.7 3.5 0.00 0.01 0.00 81 1015.1
20260904180330 72 273 0.9 4.3 0.00 0.01 0.00 80 1015.1
20260904175836 72 178 0.9 4.3 0.00 0.01 0.00 82 1015.1
20260904175407 72 218 0.9 5.2 0.00 0.01 0.00 81 1015.2
20260904174845 72 229 2.6 6.1 0.00 0.01 0.00 81 1015.2
20260904174348 72 28 2.6 6.1 0.00 0.01 0.00 79 1015.2
20260904173846 72 200 2.6 5.2 0.00 0.01 0.00 81 1015.3
20260904173343 72 51 0.9 3.5 0.00 0.01 0.00 80 1015.3
20260904172846 72 105 0.9 5.2 0.00 0.01 0.00 79 1015.3
20260904172339 72 174 1.7 5.2 0.00 0.01 0.00 78 1015.6
20260904171832 72 303 1.7 5.2 0.00 0.01 0.00 79 1015.4
20260904171355 71 206 1.7 3.5 0.00 0.01 0.00 79 1015.5
20260904170840 72 176 0.9 4.3 0.00 0.01 0.00 78 1015.8
20260904170338 72 298 1.7 3.5 0.00 0.01 0.00 80 1015.9
20260904165837 71 141 0.9 2.6 0.00 0.01 0.00 80 1015.8
20260904165340 71 227 0.9 3.5 0.00 0.01 0.00 81 1015.9
20260904164834 71 37 0.9 3.5 0.00 0.01 0.00 79 1016.0
20260904164338 71 274 1.7 3.5 0.00 0.01 0.00 79 1015.9
20260904163843 71 192 0.9 2.6 0.00 0.01 0.00 79 1015.8
20260904163341 71 192 0.9 4.3 0.00 0.01 0.00 79 1015.9
20260904162835 71 221 1.7 4.3 0.00 0.01 0.00 79 1016.1
20260904162340 71 176 0.9 2.6 0.00 0.01 0.00 78 1015.9
20260904161836 71 360 0.9 3.5 0.00 0.01 0.00 78 1016.0
20260904161338 71 355 1.7 3.5 0.00 0.01 0.00 76 1015.9
20260904160835 72 253 0.9 5.2 0.00 0.01 0.00 78 1016.0
20260904160341 72 218 2.6 5.2 0.00 0.01 0.00 77 1015.9
20260904155843 72 248 2.6 4.3 0.00 0.01 0.00 76 1015.9
20260904155408 72 103 0.9 3.5 0.00 0.01 0.00 77 1015.7
20260904154908 71 192 1.7 3.5 0.00 0.01 0.00 76 1015.6
20260904154330 71 185 2.6 3.5 0.00 0.01 0.00 75 1015.6
20260904153838 71 211 0.9 5.2 0.00 0.01 0.00 76 1015.5
20260904153338 71 355 2.6 5.2 0.00 0.01 0.00 73 1015.5
20260904152834 71 134 1.7 6.1 0.00 0.01 0.00 74 1015.6
20260904152340 71 221 3.5 6.1 0.00 0.01 0.00 74 1015.5
20260904151900 71 193 1.7 3.5 0.00 0.01 0.00 73 1015.4
20260904151335 71 193 0.9 3.5 0.00 0.01 0.00 72 1015.7
20260904150844 71 42 0.9 5.2 0.00 0.01 0.00 70 1015.7
20260904150336 71 346 2.6 5.2 0.00 0.01 0.00 71 1015.6
20260904145839 71 194 0.9 3.5 0.00 0.01 0.00 73 1015.5
20260904145338 71 123 1.7 3.5 0.00 0.01 0.00 73 1015.5
20260904144848 70 216 0.9 4.3 0.00 0.01 0.00 76 1015.5